EA3CY Weather Reports


time (UTC)temp
F
wind
direction
speed
knots
gust
knots
rain 1hr
in
rain 24hr
in
rain mn
in
humidity
%
barometer
mb
20260508005332 59 357 0.0 0.0 0.00 0.00 0.00 85 1014.6
20260508004838 59 357 0.0 0.0 0.00 0.00 0.00 85 1014.6
20260508004349 59 357 0.0 0.0 0.00 0.00 0.00 85 1014.6
20260508003836 59 357 0.0 0.0 0.00 0.00 0.00 85 1014.7
20260508003349 59 357 0.0 0.0 0.00 0.00 0.00 85 1014.8
20260508002835 59 357 0.0 0.0 0.00 0.00 0.00 85 1014.8
20260508001833 59 357 0.0 0.0 0.00 0.00 0.00 84 1015.0
20260508001343 59 357 0.0 0.0 0.00 0.00 0.00 84 1014.9
20260508000836 59 357 0.0 0.0 0.00 0.00 0.00 84 1015.0
20260508000349 59 357 0.0 0.0 0.00 0.00 0.00 85 1015.0
20260507235335 60 357 0.0 0.0 0.00 0.00 0.00 84 1015.0
20260507234840 60 357 0.0 0.0 0.00 0.00 0.00 84 1015.0
20260507234331 60 357 0.0 0.0 0.00 0.00 0.00 84 1015.0
20260507233836 60 357 0.0 0.0 0.00 0.00 0.00 84 1015.1
20260507232839 60 2 0.0 0.0 0.00 0.00 0.00 85 1015.0
20260507231838 61 17 0.0 0.0 0.00 0.00 0.00 85 1015.1
20260507231329 61 2 0.0 0.0 0.00 0.00 0.00 85 1015.1
20260507230831 61 2 0.0 0.0 0.00 0.00 0.00 85 1015.2
20260507230342 61 2 0.0 0.0 0.00 0.00 0.00 85 1015.1
20260507225839 61 20 0.0 0.0 0.00 0.00 0.00 85 1015.1
20260507224840 61 12 0.0 0.0 0.00 0.00 0.00 85 1015.1
20260507224330 61 11 0.0 0.0 0.00 0.00 0.00 84 1015.1
20260507222837 61 7 0.0 0.0 0.00 0.00 0.00 84 1015.2
20260507222331 61 7 0.0 0.0 0.00 0.00 0.00 84 1015.1
20260507221838 61 7 0.0 0.0 0.00 0.00 0.00 84 1015.1
20260507221331 61 7 0.0 0.0 0.00 0.00 0.00 83 1015.0
20260507220330 62 21 0.0 0.0 0.00 0.00 0.00 83 1015.0
20260507215843 62 26 0.0 0.0 0.00 0.00 0.00 83 1015.0
20260507215334 62 26 0.0 0.0 0.00 0.00 0.00 82 1014.9
20260507214842 62 26 0.0 0.0 0.00 0.00 0.00 82 1014.9
20260507213844 62 26 0.0 0.0 0.00 0.00 0.00 82 1015.0
20260507213335 62 27 0.0 0.0 0.00 0.00 0.00 82 1015.0
20260507212842 62 27 0.0 0.0 0.00 0.00 0.00 82 1014.9
20260507212330 62 32 0.0 0.0 0.00 0.00 0.00 82 1014.9
20260507211837 62 33 0.0 0.0 0.00 0.00 0.00 82 1014.9
20260507211330 62 125 0.0 0.0 0.00 0.00 0.00 81 1014.8
20260507210837 62 125 0.0 0.0 0.00 0.00 0.00 82 1014.9
20260507210347 62 125 0.0 0.0 0.00 0.00 0.00 82 1014.9
20260507205841 62 125 0.0 0.0 0.00 0.00 0.00 82 1014.8
20260507204838 62 125 0.0 0.0 0.00 0.00 0.00 81 1014.8
20260507204331 62 125 0.0 0.0 0.00 0.00 0.00 81 1014.7
20260507203840 62 125 0.0 0.0 0.00 0.00 0.00 81 1014.7
20260507203332 62 125 0.0 0.0 0.00 0.00 0.00 81 1014.6
20260507202838 62 125 0.0 0.0 0.00 0.00 0.00 81 1014.5
20260507202329 62 125 0.0 0.0 0.00 0.00 0.00 81 1014.5
20260507201833 62 125 0.0 0.0 0.00 0.00 0.00 81 1014.4
20260507201342 62 125 0.0 0.0 0.00 0.00 0.00 81 1014.4
20260507200829 63 129 0.0 0.0 0.00 0.00 0.00 80 1014.4
20260507200342 63 129 0.0 0.0 0.00 0.00 0.00 80 1014.3
20260507195838 63 129 0.0 0.0 0.00 0.00 0.00 80 1014.3
20260507195347 63 129 0.0 0.0 0.00 0.00 0.00 80 1014.2
20260507194832 63 129 0.0 0.0 0.00 0.00 0.00 80 1014.1
20260507194343 63 129 0.0 0.0 0.00 0.00 0.00 80 1014.0
20260507193829 63 129 0.0 0.0 0.00 0.00 0.00 80 1014.0
20260507193339 63 129 0.0 0.0 0.00 0.00 0.00 80 1014.0
20260507192844 63 129 0.0 0.0 0.00 0.00 0.00 79 1014.0
20260507192336 64 129 0.0 0.0 0.00 0.00 0.00 79 1013.9
20260507191845 64 129 0.0 0.0 0.00 0.00 0.00 79 1013.8
20260507191336 64 128 0.0 0.0 0.00 0.00 0.00 79 1013.8
20260507190842 64 128 0.0 0.0 0.00 0.00 0.00 79 1013.7
20260507190335 64 128 0.0 0.0 0.00 0.00 0.00 79 1013.7
20260507185829 64 128 0.0 0.0 0.00 0.00 0.00 79 1013.7
20260507185344 64 129 0.0 0.0 0.00 0.00 0.00 79 1013.8
20260507184848 64 128 0.0 0.0 0.00 0.00 0.00 78 1013.8
20260507184338 64 126 0.0 0.0 0.00 0.00 0.00 78 1013.8
20260507183844 64 125 0.0 0.0 0.00 0.00 0.00 78 1013.8
20260507183337 64 96 0.0 0.0 0.00 0.00 0.00 77 1013.8
20260507181845 64 115 0.0 0.0 0.00 0.00 0.00 78 1013.6
20260507175839 64 113 0.0 0.0 0.00 0.00 0.00 77 1013.4
20260507175348 65 85 0.0 0.0 0.00 0.00 0.00 78 1013.4
20260507174345 65 84 0.0 4.3 0.00 0.00 0.00 77 1013.2
20260507173830 65 80 0.9 4.3 0.00 0.00 0.00 78 1013.2
20260507173343 64 71 1.7 4.3 0.00 0.00 0.00 78 1013.3
20260507172849 65 78 1.7 6.1 0.00 0.00 0.00 77 1013.3
20260507172341 65 99 2.6 7.8 0.00 0.00 0.00 77 1013.3
20260507171846 65 130 3.5 7.8 0.00 0.00 0.00 77 1013.3
20260507170847 65 67 3.5 7.8 0.00 0.00 0.00 78 1013.3
20260507170339 65 101 5.2 7.8 0.00 0.00 0.00 77 1013.3
20260507165837 65 116 2.6 8.7 0.00 0.00 0.00 78 1013.4
20260507164330 65 128 4.3 7.8 0.00 0.00 0.00 77 1013.3
20260507161842 65 104 3.5 7.0 0.00 0.00 0.00 76 1013.0
20260507161333 66 138 3.5 7.8 0.00 0.00 0.00 76 1013.0
20260507160840 66 123 4.3 7.8 0.00 0.00 0.00 75 1012.9
20260507160332 66 49 0.0 0.9 0.00 0.00 0.00 75 1012.9
20260507155848 66 144 0.0 7.0 0.00 0.00 0.00 75 1012.9
20260507155339 66 157 3.5 7.8 0.00 0.00 0.00 74 1012.9
20260507154846 66 64 2.6 7.8 0.00 0.00 0.00 76 1012.9
20260507154337 65 151 3.5 7.8 0.00 0.00 0.00 76 1012.9
20260507153843 66 142 5.2 9.6 0.00 0.00 0.00 76 1013.0
20260507153333 66 142 5.2 9.6 0.00 0.00 0.00 75 1013.0
20260507152840 66 60 3.5 7.8 0.00 0.00 0.00 76 1012.9
20260507152331 66 59 3.5 11.3 0.00 0.00 0.00 77 1013.0
20260507151835 65 125 3.5 7.0 0.00 0.00 0.00 76 1012.9
20260507150834 66 115 4.3 9.6 0.00 0.00 0.00 76 1012.9
20260507145845 66 56 4.3 9.6 0.00 0.00 0.00 76 1013.0
20260507145335 66 123 4.3 9.6 0.00 0.00 0.00 76 1013.0
20260507144838 66 132 5.2 9.6 0.00 0.00 0.00 75 1013.1
20260507144329 66 58 5.2 13.0 0.00 0.00 0.00 76 1013.2
20260507143837 66 120 6.1 13.0 0.00 0.00 0.00 75 1013.2
20260507143348 66 102 5.2 9.6 0.00 0.00 0.00 75 1013.3
20260507142345 66 82 4.3 12.2 0.00 0.00 0.00 76 1013.5
20260507141832 66 113 4.3 11.3 0.00 0.00 0.00 77 1013.5
20260507140827 66 115 6.1 12.2 0.00 0.00 0.00 76 1013.7
20260507140340 66 94 5.2 12.2 0.00 0.00 0.00 76 1013.6
20260507135838 66 109 7.0 9.6 0.00 0.00 0.00 76 1013.6
20260507135329 66 114 6.1 9.6 0.00 0.00 0.00 76 1013.6
20260507134837 66 129 6.1 10.4 0.00 0.00 0.00 75 1013.7
20260507134331 66 83 6.1 10.4 0.00 0.00 0.00 75 1013.7
20260507133840 67 69 4.3 11.3 0.00 0.00 0.00 76 1013.6
20260507133331 67 100 6.1 11.3 0.00 0.00 0.00 74 1013.7
20260507132332 67 115 5.2 9.6 0.00 0.00 0.00 74 1014.0
20260507131835 66 53 4.3 12.2 0.00 0.00 0.00 74 1014.0
20260507131346 67 120 5.2 12.2 0.00 0.00 0.00 74 1014.0
20260507125846 67 115 5.2 11.3 0.00 0.00 0.00 73 1014.0
20260507125337 67 99 7.0 11.3 0.00 0.00 0.00 74 1014.1
20260507124844 67 109 5.2 10.4 0.00 0.00 0.00 74 1014.1
20260507123843 67 85 4.3 11.3 0.00 0.00 0.00 73 1014.1
20260507123338 67 116 6.1 10.4 0.00 0.00 0.00 73 1014.2
20260507122844 67 125 6.1 10.4 0.00 0.00 0.00 73 1014.2
20260507122337 67 137 7.0 10.4 0.00 0.00 0.00 72 1014.2
20260507121336 67 84 6.1 9.6 0.00 0.00 0.00 72 1014.3
20260507120843 67 71 4.3 10.4 0.00 0.00 0.00 72 1014.4
20260507115333 67 68 5.2 12.2 0.00 0.00 0.00 73 1014.6
20260507114841 67 123 6.1 13.0 0.00 0.00 0.00 73 1014.8
20260507114333 67 96 6.1 13.0 0.00 0.00 0.00 74 1014.8
20260507113840 67 113 4.3 11.3 0.00 0.00 0.00 74 1014.8
20260507113331 66 126 6.1 11.3 0.00 0.00 0.00 74 1014.8
20260507112334 67 100 4.3 12.2 0.00 0.00 0.00 74 1014.9
20260507111840 67 149 6.1 12.2 0.00 0.00 0.00 74 1014.9
20260507111332 67 75 6.1 12.2 0.00 0.00 0.00 74 1014.9
20260507110838 67 125 4.3 11.3 0.00 0.00 0.00 74 1015.0
20260507110329 67 82 4.3 10.4 0.00 0.00 0.00 74 1015.0
20260507105848 67 88 5.2 10.4 0.00 0.00 0.00 73 1015.0
20260507105338 67 123 5.2 12.2 0.00 0.00 0.00 73 1015.0
20260507104844 67 60 5.2 11.3 0.00 0.00 0.00 72 1015.1
20260507104336 67 142 6.1 12.2 0.00 0.00 0.00 71 1015.2
20260507103839 67 62 5.2 11.3 0.00 0.00 0.00 72 1015.1
20260507103330 67 97 5.2 11.3 0.00 0.00 0.00 71 1015.1
20260507102836 66 117 5.2 11.3 0.00 0.00 0.00 73 1015.0
20260507101835 67 115 5.2 12.2 0.00 0.00 0.00 73 1015.2
20260507101345 67 87 4.3 12.2 0.00 0.00 0.00 74 1015.2
20260507100830 66 88 3.5 10.4 0.00 0.00 0.00 75 1015.2
20260507100341 66 111 6.1 10.4 0.00 0.00 0.00 75 1015.3
20260507095839 66 98 4.3 8.7 0.00 0.00 0.00 76 1015.2
20260507095331 66 63 4.3 8.7 0.00 0.00 0.00 76 1015.3
20260507094834 66 96 4.3 9.6 0.00 0.00 0.00 76 1015.2
20260507094330 66 68 7.8 9.6 0.00 0.00 0.00 76 1015.4
20260507093836 66 28 5.2 8.7 0.00 0.00 0.00 77 1015.3
20260507093349 66 67 3.5 9.6 0.00 0.00 0.00 76 1015.2
20260507092834 66 61 5.2 10.4 0.00 0.00 0.00 76 1015.2
20260507092346 66 50 5.2 10.4 0.00 0.00 0.00 76 1015.2
20260507091340 66 80 4.3 7.8 0.00 0.00 0.00 74 1015.3
20260507090847 66 38 4.3 8.7 0.00 0.00 0.00 76 1015.2
20260507090338 65 73 5.2 8.7 0.00 0.00 0.00 76 1015.2
20260507085836 65 56 2.6 8.7 0.00 0.00 0.00 75 1015.2
20260507085331 65 100 3.5 9.6 0.00 0.00 0.00 76 1015.2
20260507084833 65 54 3.5 8.7 0.00 0.00 0.00 76 1015.2
20260507083847 65 63 3.5 7.8 0.00 0.00 0.00 76 1015.1
20260507083339 65 64 3.5 8.7 0.00 0.00 0.00 77 1015.2
20260507082338 64 75 4.3 9.6 0.00 0.00 0.00 78 1015.1
20260507081339 64 35 3.5 7.8 0.00 0.00 0.00 78 1015.1
20260507080844 64 100 3.5 13.9 0.00 0.00 0.00 77 1015.0
20260507080334 64 96 5.2 13.9 0.00 0.00 0.00 78 1015.1
20260507075831 64 64 4.3 7.0 0.00 0.00 0.00 78 1015.0
20260507075343 64 88 2.6 7.0 0.00 0.00 0.00 80 1015.0
20260507074848 64 48 2.6 8.7 0.00 0.00 0.00 80 1015.0
20260507074340 64 74 5.2 8.7 0.00 0.00 0.00 79 1015.0
20260507073343 64 37 3.5 9.6 0.00 0.00 0.00 80 1014.9
20260507072848 63 48 5.2 7.0 0.00 0.00 0.00 79 1014.9
20260507072341 63 75 4.3 7.8 0.00 0.00 0.00 80 1014.9
20260507071847 63 17 3.5 6.1 0.00 0.00 0.00 81 1014.9
20260507071339 63 57 3.5 7.0 0.00 0.00 0.00 81 1014.9
20260507070828 63 40 4.3 8.7 0.00 0.00 0.00 82 1014.9
20260507070342 63 67 4.3 8.7 0.00 0.00 0.00 82 1015.0
20260507065839 63 69 4.3 9.6 0.00 0.00 0.00 82 1014.9
20260507065349 63 77 2.6 8.7 0.00 0.00 0.00 83 1014.9
20260507064833 63 34 5.2 8.7 0.00 0.00 0.00 83 1014.9
20260507064328 63 36 3.5 7.0 0.00 0.00 0.00 83 1015.0
20260507063833 63 28 2.6 7.0 0.00 0.00 0.00 84 1015.0
20260507063345 63 75 2.6 7.0 0.00 0.00 0.00 84 1015.0
20260507062832 62 67 1.7 7.0 0.00 0.00 0.00 85 1014.9
20260507062345 62 32 3.5 7.8 0.00 0.00 0.00 85 1015.0
20260507061832 62 59 2.6 7.0 0.00 0.00 0.00 85 1015.0
20260507060342 61 48 1.7 3.5 0.00 0.00 0.00 86 1014.9
20260507055330 60 51 1.7 5.2 0.00 0.00 0.00 87 1014.8
20260507054838 59 2 0.0 0.9 0.00 0.00 0.00 84 1014.8
20260507054331 59 2 0.0 1.7 0.00 0.00 0.00 84 1014.6
20260507053835 59 2 0.0 1.7 0.00 0.00 0.00 86 1014.6
20260507053332 58 7 0.0 2.6 0.00 0.00 0.00 86 1014.5
20260507052839 57 350 0.9 2.6 0.00 0.00 0.00 85 1014.5
20260507052332 57 298 0.0 0.0 0.00 0.00 0.00 85 1014.5
20260507051838 57 298 0.0 0.0 0.00 0.00 0.00 84 1014.4
20260507051349 57 298 0.0 0.0 0.00 0.00 0.00 84 1014.3
20260507050836 57 298 0.0 0.0 0.00 0.00 0.00 84 1014.2
20260507050347 57 298 0.0 0.0 0.00 0.00 0.00 84 1014.3
20260507045843 57 298 0.0 0.0 0.00 0.00 0.00 84 1014.1
20260507045334 57 298 0.0 0.0 0.00 0.00 0.00 83 1014.0
20260507044841 57 298 0.0 0.0 0.00 0.00 0.00 83 1014.0
20260507044333 57 298 0.0 0.0 0.00 0.00 0.00 83 1014.0
20260507043838 57 298 0.0 0.0 0.00 0.00 0.00 83 1014.1
20260507043331 57 298 0.0 0.0 0.00 0.00 0.00 83 1014.1
20260507042838 57 298 0.0 0.0 0.00 0.00 0.00 83 1014.1
20260507042331 57 298 0.0 0.0 0.00 0.00 0.00 83 1014.2
20260507041835 57 298 0.0 0.0 0.00 0.00 0.00 83 1014.2
20260507041346 57 298 0.0 0.0 0.00 0.00 0.00 82 1014.2
20260507040835 57 298 0.0 0.0 0.00 0.00 0.00 82 1014.2
20260507040346 57 298 0.0 0.0 0.00 0.00 0.00 82 1014.2
20260507035843 57 298 0.0 0.0 0.00 0.00 0.00 82 1014.1
20260507034845 57 298 0.0 0.0 0.00 0.00 0.00 81 1014.1
20260507034338 57 298 0.0 0.0 0.00 0.00 0.00 81 1014.2
20260507033845 57 298 0.0 0.0 0.00 0.00 0.00 80 1014.1
20260507033336 57 298 0.0 0.0 0.00 0.00 0.00 80 1014.1
20260507032841 57 298 0.0 0.0 0.00 0.00 0.00 80 1014.0
20260507032331 57 298 0.0 0.0 0.00 0.00 0.00 80 1014.0
20260507031837 57 298 0.0 0.0 0.00 0.00 0.00 80 1014.0
20260507031349 57 298 0.0 0.0 0.00 0.00 0.00 79 1014.0
20260507030348 57 298 0.0 0.0 0.00 0.00 0.00 79 1014.0
20260507025845 57 298 0.0 0.0 0.00 0.00 0.00 79 1013.9
20260507025338 57 298 0.0 0.0 0.00 0.00 0.00 79 1014.0
20260507024843 57 298 0.0 0.0 0.00 0.00 0.00 79 1013.9
20260507024333 57 298 0.0 0.0 0.00 0.00 0.00 79 1013.9
20260507023331 57 298 0.0 0.0 0.00 0.00 0.00 79 1013.9
20260507022837 57 298 0.0 0.0 0.00 0.00 0.00 79 1013.9
20260507022333 57 298 0.0 0.0 0.00 0.00 0.00 79 1013.8
20260507021840 57 298 0.0 0.0 0.00 0.00 0.00 79 1013.7
20260507021332 57 298 0.0 0.0 0.00 0.00 0.00 79 1013.7
20260507020840 57 298 0.0 0.0 0.00 0.00 0.00 80 1013.7
20260507020331 57 298 0.0 0.0 0.00 0.00 0.00 80 1013.7
20260507015846 57 298 0.0 0.0 0.00 0.00 0.00 80 1013.7
20260507015338 57 298 0.0 0.0 0.00 0.00 0.00 80 1013.8
20260507014334 57 298 0.0 0.0 0.00 0.00 0.00 80 1013.8
20260507013837 57 298 0.0 0.0 0.00 0.00 0.00 80 1013.8
20260507013330 57 298 0.0 0.0 0.00 0.00 0.00 79 1013.9
20260507012839 57 298 0.0 0.0 0.00 0.00 0.00 79 1013.9
20260507012349 57 298 0.0 0.0 0.00 0.00 0.00 78 1014.0
20260507011346 58 298 0.0 0.0 0.00 0.00 0.00 76 1014.0
20260507010833 58 298 0.0 0.0 0.00 0.00 0.00 76 1014.0